| time (UTC) | temp F | wind direction | speed knots | gust knots | rain 1hr in | rain 24hr in | rain mn in | humidity % | barometer mb |
| 20260507150046 | 55 | 22 | 2.6 | 10.4 | 0.00 | 0.22 | 0.20 | 84 | 1012.4 |
| 20260507144539 | 55 | 340 | 4.3 | 8.7 | 0.00 | 0.22 | 0.20 | 85 | 1012.6 |
| 20260507143036 | 55 | 343 | 1.7 | 8.7 | 0.00 | 0.22 | 0.20 | 88 | 1012.6 |
| 20260507141534 | 55 | 340 | 3.5 | 7.0 | 0.00 | 0.22 | 0.20 | 91 | 1012.8 |
| 20260507140034 | 55 | 343 | 6.1 | 15.6 | 0.00 | 0.22 | 0.20 | 91 | 1012.7 |
| 20260507134529 | 56 | 9 | 1.7 | 7.0 | 0.00 | 0.22 | 0.20 | 94 | 1012.3 |
| 20260507133028 | 56 | 4 | 0.9 | 4.3 | 0.01 | 0.22 | 0.20 | 94 | 1012.2 |
| 20260507131528 | 56 | 352 | 1.7 | 7.8 | 0.02 | 0.22 | 0.20 | 94 | 1012.3 |
| 20260507130044 | 56 | 19 | 0.0 | 5.2 | 0.02 | 0.22 | 0.20 | 94 | 1012.4 |
| 20260507124524 | 56 | 22 | 0.9 | 6.1 | 0.02 | 0.22 | 0.20 | 94 | 1012.0 |
| 20260507123024 | 56 | 8 | 1.7 | 7.0 | 0.03 | 0.21 | 0.19 | 93 | 1012.2 |
| 20260507121522 | 56 | 343 | 2.6 | 9.6 | 0.03 | 0.20 | 0.18 | 93 | 1012.1 |
| 20260507120027 | 57 | 36 | 5.2 | 9.6 | 0.06 | 0.20 | 0.18 | 93 | 1012.2 |
| 20260507114519 | 57 | 11 | 4.3 | 7.8 | 0.06 | 0.20 | 0.18 | 94 | 1012.0 |
| 20260507113014 | 58 | 18 | 1.7 | 6.1 | 0.04 | 0.18 | 0.16 | 94 | 1012.2 |
| 20260507111512 | 58 | 348 | 0.0 | 4.3 | 0.04 | 0.17 | 0.15 | 93 | 1012.0 |
| 20260507110009 | 58 | 311 | 2.6 | 7.8 | 0.01 | 0.14 | 0.12 | 93 | 1011.8 |
| 20260507104506 | 59 | 29 | 2.6 | 12.2 | 0.03 | 0.14 | 0.12 | 92 | 1011.4 |
| 20260507103004 | 59 | 11 | 3.5 | 7.8 | 0.09 | 0.14 | 0.12 | 94 | 1011.1 |
| 20260507101540 | 60 | 344 | 0.0 | 6.1 | 0.09 | 0.13 | 0.11 | 94 | 1011.3 |
| 20260507100046 | 60 | 30 | 1.7 | 7.8 | 0.10 | 0.13 | 0.11 | 93 | 1011.1 |
| 20260507094528 | 62 | 15 | 0.9 | 8.7 | 0.08 | 0.11 | 0.09 | 93 | 1010.9 |
| 20260507093024 | 64 | 6 | 4.3 | 11.3 | 0.02 | 0.05 | 0.03 | 92 | 1010.8 |
| 20260507091520 | 66 | 207 | 0.0 | 0.0 | 0.01 | 0.04 | 0.02 | 94 | 1010.3 |
| 20260507090020 | 66 | 155 | 0.0 | 0.0 | 0.00 | 0.03 | 0.01 | 93 | 1010.1 |
| 20260507084519 | 66 | 233 | 0.0 | 2.6 | 0.00 | 0.03 | 0.01 | 93 | 1010.1 |
| 20260507083019 | 66 | 153 | 0.0 | 0.9 | 0.00 | 0.03 | 0.01 | 93 | 1010.1 |
| 20260507081519 | 67 | 227 | 0.0 | 2.6 | 0.00 | 0.03 | 0.01 | 92 | 1010.3 |
| 20260507080017 | 67 | 174 | 0.0 | 4.3 | 0.00 | 0.03 | 0.01 | 92 | 1010.0 |
| 20260507074515 | 67 | 175 | 2.6 | 9.6 | 0.00 | 0.03 | 0.01 | 92 | 1010.1 |
| 20260507073014 | 67 | 187 | 0.9 | 7.0 | 0.00 | 0.03 | 0.01 | 92 | 1010.2 |
| 20260507071513 | 67 | 189 | 6.1 | 10.4 | 0.00 | 0.03 | 0.01 | 92 | 1010.3 |
| 20260507070013 | 67 | 174 | 4.3 | 9.6 | 0.01 | 0.03 | 0.01 | 92 | 1009.8 |
| 20260507064510 | 67 | 218 | 5.2 | 10.4 | 0.01 | 0.03 | 0.01 | 92 | 1009.7 |
| 20260507063007 | 67 | 182 | 1.7 | 7.8 | 0.01 | 0.03 | 0.01 | 91 | 1009.3 |
| 20260507061504 | 68 | 174 | 4.3 | 7.8 | 0.01 | 0.03 | 0.01 | 89 | 1009.4 |
| 20260507054557 | 70 | 190 | 5.2 | 13.0 | 0.00 | 0.02 | 0.00 | 84 | 1010.5 |
| 20260507053056 | 70 | 201 | 3.5 | 8.7 | 0.00 | 0.02 | 0.00 | 83 | 1010.9 |
| 20260507051554 | 70 | 206 | 3.5 | 7.8 | 0.00 | 0.02 | 0.00 | 83 | 1011.0 |
| 20260507050052 | 70 | 151 | 4.3 | 9.6 | 0.00 | 0.02 | 0.00 | 82 | 1011.1 |
| 20260507044551 | 70 | 197 | 3.5 | 9.6 | 0.00 | 0.02 | 0.00 | 81 | 1011.2 |
| 20260507043049 | 70 | 225 | 2.6 | 7.8 | 0.00 | 0.02 | 0.00 | 81 | 1011.0 |
| 20260507041549 | 70 | 185 | 2.6 | 7.0 | 0.00 | 0.02 | 0.00 | 81 | 1010.9 |
| 20260507040045 | 70 | 185 | 2.6 | 7.8 | 0.00 | 0.02 | 0.00 | 81 | 1011.0 |
| 20260507034546 | 70 | 193 | 0.9 | 7.8 | 0.00 | 0.02 | 0.02 | 81 | 1011.1 |
| 20260507033044 | 69 | 219 | 2.6 | 7.0 | 0.00 | 0.02 | 0.02 | 82 | 1011.0 |
| 20260507031543 | 69 | 232 | 2.6 | 6.1 | 0.00 | 0.02 | 0.02 | 82 | 1010.9 |
| 20260507030043 | 69 | 174 | 2.6 | 5.2 | 0.00 | 0.02 | 0.02 | 82 | 1011.0 |
| 20260507024547 | 69 | 204 | 0.9 | 4.3 | 0.00 | 0.02 | 0.02 | 82 | 1010.9 |
| 20260507023043 | 69 | 214 | 2.6 | 5.2 | 0.00 | 0.02 | 0.02 | 82 | 1011.3 |
| 20260507021542 | 69 | 165 | 1.7 | 5.2 | 0.00 | 0.02 | 0.02 | 82 | 1011.2 |
| 20260507020057 | 69 | 213 | 2.6 | 5.2 | 0.00 | 0.02 | 0.02 | 82 | 1011.2 |
| 20260507014544 | 69 | 191 | 0.9 | 4.3 | 0.00 | 0.02 | 0.02 | 81 | 1011.2 |
| 20260507013045 | 69 | 191 | 0.9 | 3.5 | 0.00 | 0.02 | 0.02 | 80 | 1011.3 |
| 20260507011539 | 70 | 213 | 0.0 | 4.3 | 0.00 | 0.02 | 0.02 | 80 | 1011.1 |
| 20260507010038 | 70 | 164 | 0.0 | 3.5 | 0.00 | 0.02 | 0.02 | 78 | 1011.1 |
| 20260507004541 | 71 | 205 | 0.9 | 6.1 | 0.00 | 0.02 | 0.02 | 77 | 1011.2 |
| 20260507003037 | 71 | 152 | 1.7 | 6.1 | 0.00 | 0.02 | 0.02 | 76 | 1011.1 |
| 20260507001538 | 72 | 193 | 0.0 | 7.0 | 0.00 | 0.02 | 0.02 | 76 | 1011.0 |
| 20260507000036 | 72 | 200 | 1.7 | 7.8 | 0.00 | 0.02 | 0.02 | 74 | 1010.8 |
| 20260506234538 | 73 | 203 | 2.6 | 10.4 | 0.00 | 0.02 | 0.02 | 73 | 1010.9 |
| 20260506233135 | 73 | 184 | 2.6 | 7.0 | 0.00 | 0.02 | 0.02 | 72 | 1010.8 |
| 20260506231545 | 73 | 198 | 2.6 | 7.8 | 0.00 | 0.02 | 0.02 | 72 | 1010.6 |
| 20260506230047 | 74 | 227 | 6.1 | 10.4 | 0.00 | 0.02 | 0.02 | 71 | 1010.6 |
| 20260506224532 | 74 | 167 | 3.5 | 7.8 | 0.00 | 0.02 | 0.02 | 72 | 1010.6 |
| 20260506223045 | 74 | 212 | 1.7 | 7.8 | 0.00 | 0.02 | 0.02 | 71 | 1010.5 |
| 20260506221531 | 74 | 180 | 3.5 | 7.8 | 0.00 | 0.02 | 0.02 | 71 | 1010.6 |
| 20260506220032 | 74 | 183 | 1.7 | 7.8 | 0.00 | 0.02 | 0.02 | 71 | 1010.9 |
| 20260506214530 | 74 | 190 | 1.7 | 8.7 | 0.00 | 0.02 | 0.02 | 71 | 1010.6 |
| 20260506213030 | 74 | 199 | 1.7 | 7.0 | 0.00 | 0.02 | 0.02 | 71 | 1010.5 |
| 20260506211539 | 74 | 206 | 3.5 | 11.3 | 0.00 | 0.02 | 0.02 | 71 | 1010.7 |
| 20260506210034 | 74 | 212 | 3.5 | 11.3 | 0.00 | 0.02 | 0.02 | 70 | 1010.6 |
| 20260506204529 | 74 | 205 | 9.6 | 17.4 | 0.00 | 0.02 | 0.02 | 69 | 1010.2 |
| 20260506203030 | 74 | 153 | 8.7 | 14.8 | 0.00 | 0.02 | 0.02 | 69 | 1010.2 |
| 20260506201534 | 74 | 227 | 4.3 | 10.4 | 0.00 | 0.02 | 0.02 | 70 | 1010.0 |
| 20260506200023 | 74 | 172 | 4.3 | 16.5 | 0.00 | 0.02 | 0.02 | 70 | 1010.4 |
| 20260506194526 | 73 | 218 | 6.1 | 12.2 | 0.00 | 0.02 | 0.02 | 70 | 1010.5 |
| 20260506193018 | 73 | 176 | 6.1 | 11.3 | 0.00 | 0.02 | 0.02 | 71 | 1010.8 |
| 20260506191516 | 73 | 218 | 3.5 | 7.0 | 0.00 | 0.02 | 0.02 | 72 | 1011.5 |
| 20260506190013 | 72 | 195 | 2.6 | 7.8 | 0.00 | 0.02 | 0.02 | 73 | 1011.8 |
| 20260506184511 | 71 | 177 | 3.5 | 8.7 | 0.00 | 0.02 | 0.02 | 75 | 1012.0 |
| 20260506183016 | 71 | 193 | 3.5 | 10.4 | 0.00 | 0.02 | 0.02 | 75 | 1012.3 |
| 20260506181510 | 72 | 169 | 2.6 | 11.3 | 0.00 | 0.02 | 0.02 | 73 | 1012.3 |
| 20260506180012 | 73 | 221 | 6.1 | 12.2 | 0.01 | 0.02 | 0.02 | 70 | 1012.3 |
| 20260506174510 | 72 | 207 | 6.1 | 14.8 | 0.01 | 0.02 | 0.02 | 72 | 1012.2 |
| 20260506173002 | 71 | 217 | 6.1 | 11.3 | 0.01 | 0.02 | 0.02 | 74 | 1012.2 |
| 20260506171502 | 71 | 209 | 6.1 | 11.3 | 0.01 | 0.02 | 0.02 | 75 | 1012.3 |
| 20260506170114 | 69 | 219 | 3.5 | 10.4 | 0.00 | 0.01 | 0.01 | 79 | 1012.6 |
| 20260506164556 | 68 | 179 | 5.2 | 9.6 | 0.00 | 0.01 | 0.01 | 79 | 1013.0 |
| 20260506163109 | 68 | 193 | 6.1 | 11.3 | 0.00 | 0.01 | 0.01 | 80 | 1013.0 |
| 20260506161554 | 67 | 161 | 2.6 | 7.0 | 0.00 | 0.01 | 0.01 | 81 | 1013.4 |
| 20260506160052 | 67 | 174 | 2.6 | 7.0 | 0.01 | 0.01 | 0.01 | 83 | 1013.6 |
| 20260506154551 | 66 | 195 | 0.9 | 3.5 | 0.01 | 0.01 | 0.01 | 84 | 1013.9 |
| 20260506153049 | 66 | 169 | 1.7 | 7.8 | 0.01 | 0.01 | 0.01 | 82 | 1014.2 |
| 20260506151549 | 67 | 175 | 2.6 | 9.6 | 0.01 | 0.01 | 0.01 | 82 | 1014.3 |